Regional Weather Roundup
Issued by NWS

Home | Current Version | Previous Version | Graphics & Text | Print | Product List | Glossary On
Versions: 1 2 3 4 5 6 7 8 9 10 11 12 13 14 15 16 17 18 19 20 21 22 23 24 25 26 27 28 29 30 31 32 33 34 35 36 37 38 39 40 41 42 43 44 45 46 47 48 49 50
000
ASUS44 KMEG 232110
RWRTN
TENNESSEE HOURLY STATE WEATHER ROUNDUP
NATIONAL WEATHER SERVICE MEMPHIS TN
400 PM CDT WED JUL 23 2014

TNZ002-004-019-021-049-052-054-088>092-232200-
WEST TENNESSEE

CITY           SKY/WX    TMP DP  RH WIND       PRES   REMARKS
MEMPHIS INTL   CLOUDY    89  72  56 N13       29.99F HX  96
NWS MEMPHIS      N/A     88 N/A N/A MISG        N/A
JACKSON        CLOUDY    73  68  84 S10       30.00F
DYERSBURG      CLOUDY    75  64  69 S6        29.95F
UNION CITY     PTSUNNY   75  68  78 N15       29.94R
PARIS          PTSUNNY   84  73  69 SW8       29.96R HX  90
LEXINGTON      SUNNY     77  66  69 W6        29.96F
$$

TNZ008-025-027-028-033-062-065-066-232200-
NORTH MIDDLE TENNESSEE

CITY           SKY/WX    TMP DP  RH WIND       PRES   REMARKS
NASHVILLE      PTSUNNY   89  75  63 VRB7      29.95F HX  99
DICKSON        PTSUNNY   79  68  69 SW3       29.98F
PORTLAND       PTSUNNY   88  72  58 W9        29.96R HX  94
CLARKSVILLE    PTSUNNY   90  71  53 W8        29.95F HX  96
LEBANON        PTSUNNY   93  72  50 S14       29.93F HX 100
SMYRNA         PTSUNNY   92  76  59 S13G18    29.95F THUNDER HX 104
MURFREESBORO   PTSUNNY   88  73  60 S9        29.97F HX  95
COOKEVILLE     MOSUNNY   88  75  66 S10       30.00F HX  97
LIVINGSTON     PTSUNNY   85  71  62 SW8       30.00F HX  90
GALLATIN       PTSUNNY   95  71  45 VRB6      29.97S HX 102
CROSSVILLE     PTSUNNY   73  68  84 SW5       30.08F
$$

TNZ061-075-076-078-094-096-097-232200-
SOUTH MIDDLE TENNESSEE

CITY           SKY/WX    TMP DP  RH WIND       PRES   REMARKS
LEWISBURG      PTSUNNY   87  73  62 S8        29.99F HX  94
FAYETTEVILLE   SUNNY     81  72  74 S7        30.03F
TULLAHOMA      PTSUNNY   84  72  65 SW3       30.03F
WINCHESTER     MOSUNNY   86  72  62 SW3       30.02F HX  92
MCMINNVILLE    SUNNY     84  73  70 S3        30.02F HX  91
COLUMBIA       SUNNY     90  75  62 S7        29.97F HX 100
SHELBYVILLE    MOSUNNY   88  75  66 SW8       30.00F HX  97
$$

TNZ017-018-042-046-047-232200-
NORTHEAST TENNESSEE

CITY           SKY/WX    TMP DP  RH WIND       PRES   REMARKS
TRI CITIES     CLOUDY    77  68  73 NW5       30.06R
ELIZABETHTON   CLEAR     79  70  73 W5        30.05R
$$

TNZ012-013-036-069-073-074-232200-
CENTRAL EAST TENNESSEE

CITY           SKY/WX    TMP DP  RH WIND       PRES   REMARKS
KNOXVILLE      PTSUNNY   80  68  66 E8        30.02F
OAK RIDGE      PTSUNNY   75  71  87 NW3       30.03F
GATLINBURG     MOCLDY    73  66  78 VRB5      30.04R
MORRISTOWN     CLEAR     73  68  83 SE3       30.05F
$$

TNZ083-085-099-232200-
SOUTHEAST TENNESSEE

CITY           SKY/WX    TMP DP  RH WIND       PRES   REMARKS
CHATTANOOGA    PTSUNNY   86  70  58 SW7       30.00F HX  90
$$

SKY/WX REPORTED AS FAIR MEANS FEW OR NO CLOUDS BELOW
12 THOUSAND FEET.



USA.gov is the U.S. government's official web portal to all federal, state and local government web resources and services.